Home > Weather > Bridlington > Past weeks

Flag for United Kingdom Past Weather in Bridlington, England, United Kingdom — Yesterday and Last 2 Weeks

Now
52 °F

Cool.


Feels Like: 48 °F
Forecast: 46 / 58 °F
Wind: 10 mph from North

Location: Bridlington Mrsc

Current Time: May 28, 2016 at 9:21:33 PM

Latest Report: May 28, 2016 at 8:00 PM


Visibility: N/A

Pressure: 30.00 "Hg

Humidity: 87%

Dew Point: 48 °F

Location of BridlingtonLocation

Past Weather in Bridlington — Graph

°F

Bridlington Temperature Yesterday

Maximum temperature yesterday: 58 °F (at 1:00 PM)
Minimum temperature yesterday: 49 °F (at 12:00 AM)
Average temperature yesterday: 52 °F

High & Low Weather Summary for the Past Weeks

 TemperatureHumidityPressure
High66 °F (May 22, 2:00 PM)100% (May 26, 5:00 AM)30.23 "Hg (May 26, 5:00 AM)
Low42 °F (May 15, 12:00 AM)49% (May 20, 3:00 PM)29.59 "Hg (May 18, 12:00 PM)
Average52 °F83%29.95 "Hg
* Reported May 13 8:00 PM — May 28 8:00 PM, Bridlington, Weather by CustomWeather, © 2016

Note: Actual official high and low records may vary slightly from our data, if they occured in-between our weather recording intervals... More about our weather records

Advertising

Bridlington Weather History for the Previous 24 Hours

Scroll right to see more
 ConditionsComfort  
Time TempWeatherWind HumidityBarometerVisibility
8:00 PM
Sat, May 28
52 °FCool.10 mph87%30.00 "HgN/A
7:00 PM52 °FCool.8 mph85%30.01 "HgN/A
2:00 PM54 °FCool.7 mph86%30.04 "HgN/A
1:00 PM54 °FCool.10 mph82%30.04 "HgN/A
12:00 PM54 °FCool.9 mph86%30.05 "HgN/A
11:00 AM55 °FCool.9 mph84%30.05 "HgN/A
10:00 AM54 °FCool.7 mph86%30.05 "HgN/A
9:00 AM53 °FCool.6 mph87%30.06 "HgN/A
8:00 AM52 °FCool.6 mph89%30.06 "HgN/A
7:00 AM51 °FCool.5 mph90%30.06 "HgN/A
6:00 AM51 °FCool.3 mph87%30.07 "HgN/A
5:00 AM50 °FCool.3 mph89%30.07 "HgN/A
4:00 AM50 °FCool.6 mph91%30.07 "HgN/A
3:00 AM50 °FCool.3 mph86%30.08 "HgN/A
2:00 AM50 °FCool.6 mph90%30.08 "HgN/A
1:00 AM49 °FCool.2 mph94%30.09 "HgN/A
12:00 AM50 °FCool.3 mph96%30.11 "HgN/A
11:00 PM
Fri, May 27
50 °FCool.1 mph97%30.11 "HgN/A
10:00 PM49 °FCool.3 mph96%30.10 "HgN/A
9:00 PM51 °FCool.7 mph94%30.09 "HgN/A
Weather by CustomWeather, © 2016

See weather overviewHow to use our weather pages